Regional Weather Roundup
Issued by NWS Goodland, KS

Home | Current Version | Previous Version | Graphics & Text | Print | Product List | Glossary On
Versions: 1 2 3 4 5 6 7 8 9 10 11 12 13 14 15 16 17 18 19 20 21 22 23 24 25 26 27 28 29 30 31 32 33 34 35 36 37 38 39 40 41 42 43 44 45 46 47 48 49 50
000
ASUS43 KGLD 270008
RWRGLD

GOODLAND FORECAST AREA HOURLY WEATHER ROUNDUP
NATIONAL WEATHER SERVICE GOODLAND KS
600 PM MDT THU MAR 26 2015

...OFFICIAL OBSERVATIONS...

CITY           SKY/WX    TMP DP  RH WIND       PRES   REMARKS
GOODLAND KS    CLOUDY    55  28  35 N15G24    30.11R
HILL CITY KS   CLOUDY    60  26  27 N21G28    30.03R
IMPERIAL NEB     N/A     54  29  38 N20       30.09R
MCCOOK NEB     PTSUNNY   59  24  26 N22       30.05R
AKRON CO       CLOUDY    52  26  36 N17       30.11R
BURLINGTON CO  CLOUDY    56  24  29 N16G26    30.11R
LIMON CO       MOSUNNY   55  22  27 N15       30.14R
$$

...UNOFFICIAL OBSERVATIONS...

CITY           SKY/WX    TMP DP  RH WIND       PRES   REMARKS
COLBY KS       CLOUDY    57  34  41 NW21G29   30.09R
GOVE KS          N/A     59  32  36 MISG        N/A
LENORA KS        N/A     59  32  36 MISG        N/A
NORTON KS      MOSUNNY   55  19  24 N20G26    30.03R
SHARON SPRINGS   N/A     59  29  31 N14G28      N/A
TRIBUNE KS     MOSUNNY   63  36  36 NW17      30.11R
KIT CARSON CO    N/A     57  26  30 MISG        N/A
YUMA CO          N/A     54  26  33 N15G25      N/A
$$



USA.gov is the U.S. government's official web portal to all federal, state and local government web resources and services.